Terug naar catalogus

YAOGAN-30 R

ActiefMilitairVLEO
NORAD 45460·PAYLOAD·🇨🇳 China

Gelanceerd Mar 24, 2020 vanaf Xichang Satellite Launch Center

Loading…

Volgende Passages (komende 24 uur)

TLE

VersSource: Space-Track

Epoch: Sep 14, 2026, 15:36 UTC

1 45460U 20021A   26257.65019850  .00001992  00000-0  14690-3 0  9994
2 45460  34.9958  25.4654 0002926  92.5638 267.5405 15.03073280354029

Volg YAOGAN-30 R in realtime met AllMySat

Download on the App Store